Tracking 19192 objects as of 22-Jun-2018
HD Live streaming from Space Station
objects crossing your sky now

FENGYUN 1C DEB

Track FENGYUN 1C DEB now!
10-day predictions


NORAD ID: 30619
Int'l Code: 1999-025ANA
Perigee: 616.8 km
Apogee: 945.5 km
Inclination: 98.6 °
Period: 100.3 minutes
Semi major axis: 7152 km
RCS: 0.0078 m2 (small)
Launch date: May 10, 1999
Source: People's Republic of China (PRC)
Launch site: Taiyaun Space Center, China (TSC)

Note: This is SATELLITE DEBRIS
aabbcc
Your satellite tracking list
Your tracking list is empty




NASA's NSSDC Master Catalog

Two Line Element Set (TLE):
1 30619U 99025ANA 18172.59908924 +.00000085 +00000-0 +36730-4 0  9995
2 30619 098.6155 205.3122 0229814 294.2514 193.7534 14.35315847597300
Source of the keplerian elements: AFSPC